User: anonymous   Login
Location: Unspecified
(0.0000°N, 0.0000°E)
Time: 01:23:46
(UTC+01:00)
Language:

Cosmos 1782 Rocket - Orbit

View from above orbital plane
View from above orbital plane
View from above satellite
View from above satellite

Ground track
Ground track

The orbit data is extracted from the following two-line orbital elements,

1 16987U 86074B   15028.60124546  .00000446  00000-0  52358-4 0  5795
2 16987 082.5143 045.5992 0017110 244.9421 260.6606 14.82627577529456
Epoch (UTC): 28 January 2015 14:25:47
Eccentricity: 0.0017110
inclination: 82.5143°
perigee height: 609 km
apogee height: 633 km
right ascension of ascending node: 45.5992°
argument of perigee: 244.9421°
revolutions per day: 14.82627577
mean anomaly at epoch: 260.6606°
orbit number at epoch: 52945

The dashed part of the orbit path shows where the satellite is in the earth's shadow,  

DLR